This demonstration page uses our WeatherBlox Daily Observations layout. Learn more.

Left ArrowRight Arrow

39.08367, -84.50855

Hourly Observations for May 23, 2020

Temp ( °F °C ) Dew Point ( °F °C ) Humidity (%) Winds ( mph kmh ) Pressure ( in mb ) Visibility ( mi km ) Precip ( " mm )
12:53 am 00:53 Clear with Mist and Fog 58 14.4 57 13.9 97 97 Calm 30 1016 6 9.65604 0 0
1:22 am 01:22 Mostly Clear with Mist and Fog 57 13.9 57 13.9 100 100 SSW 3 6 30.01 1016 1.75 2.816345 0 0
1:29 am 01:29 Partly Cloudy with Mist and Fog 57 13.9 57 13.9 100 100 Calm 30.01 1016 3 4.82802 0 0
1:53 am 01:53 Cloudy 58 14.4 58 14.4 100 100 Calm 30 1016 7 11.26538 0 0
2:53 am 02:53 Mostly Clear with Mist and Fog 59 15 58 14.4 96 96 Calm 29.98 1015 5 8.0467 0 0
3:53 am 03:53 Mostly Cloudy with Mist and Fog 59 15 58 14.4 96 96 Calm 29.98 1015 6 9.65604 0 0
4:53 am 04:53 Cloudy 59 15 58 14.4 96 96 Calm 29.98 1015 8 12.87472 0 0
5:53 am 05:53 Cloudy 60 15.6 59 15 96 96 Calm 29.98 1015 9 14.48406 0 0
6:53 am 06:53 Cloudy 61 16.1 60 15.6 97 97 Calm 29.99 1016 7 11.26538 0 0
7:53 am 07:53 Cloudy 62 16.7 61 16.1 96 96 Calm 30.01 1016 9 14.48406 0 0
8:53 am 08:53 Sunny 66 18.9 63 17.2 90 90 Calm 30.03 1017 10 16.0934 0 0
9:53 am 09:53 Mostly Sunny 71 21.7 65 18.3 81 81 SSW 6 9 30.04 1017 10 16.0934 0 0
10:53 am 10:53 Sunny 75 23.9 66 18.9 74 74 VRB 3 6 30.03 1017 10 16.0934 0 0
11:53 am 11:53 Mostly Sunny 78 25.6 66 18.9 67 67 VRB 5 7 30.03 1017 10 16.0934 0 0
12:53 pm 12:53 Mostly Cloudy 79 26.1 67 19.4 67 67 S 5 7 30.02 1017 10 16.0934 0 0
1:53 pm 13:53 Partly Cloudy 79 26.1 67 19.4 67 67 VRB 3 6 29.99 1016 10 16.0934 0 0
2:53 pm 14:53 Mostly Cloudy 81 27.2 67 19.4 62 62 SSW 7 11 29.98 1015 10 16.0934 0 0
3:53 pm 15:53 Mostly Cloudy 82 27.8 67 19.4 60 60 S 7 11 29.96 1015 10 16.0934 0 0
4:53 pm 16:53 Cloudy 80 26.7 67 19.4 64 64 SE 5 7 29.95 1014 10 16.0934 0 0
5:24 pm 17:24 Cloudy with Heavy Thunderstorms 73 22.8 69 20.6 87 87 N 14 22 29.95 1014 2.5 4.02335 0.06 1.524
5:31 pm 17:31 Cloudy with Heavy Thunderstorms 72 22.2 69 20.6 91 91 NW 12 19 29.97 1015 1 1.60934 0.29 7.366
5:33 pm 17:33 Cloudy with Heavy Thunderstorms 72 22.2 69 20.6 91 91 W 9 15 29.97 1015 0.75 1.207005 0.37 9.398
5:53 pm 17:53 Mostly Cloudy with Light Thunderstorms 71 21.7 66 18.9 84 84 NE 10 17 29.97 1015 1.25 2.011675 0.86 21.844
5:55 pm 17:55 Mostly Cloudy with Light Thunderstorms 71 21.7 67 19.4 87 87 E 10 17 29.97 1015 4 6.43736 0.001 0.001
6:10 pm 18:10 Mostly Cloudy with Nearby Thunderstorms 71 21.7 66 18.9 84 84 VRB 3 6 29.97 1015 9 14.48406 0.001 0.001
6:53 pm 18:53 Cloudy 71 21.7 66 18.9 84 84 N 8 13 29.98 1015 10 16.0934 0.001 0.001
7:53 pm 19:53 Mostly Cloudy 70 21.1 67 19.4 90 90 ENE 6 9 29.98 1015 10 16.0934 0 0
8:49 pm 20:49 Mostly Cloudy with Nearby Thunderstorms 70 21 66 19 88 88 NW 7 11 30.01 1016 10 16.0934 0.001 0.001
8:53 pm 20:53 Mostly Cloudy with Nearby Thunderstorms 70 21.1 67 19.4 90 90 WNW 8 13 30.01 1016 8 12.87472 0.01 0.254
9:19 pm 21:19 Cloudy with Heavy Rain 69 20.6 68 20 96 96 S 17 28 30.03 1017 2.5 4.02335 0.14 3.556
9:28 pm 21:28 Cloudy with Heavy Rain 69 20.6 67 19.4 93 93 SSW 20 31 30 1016 0.75 1.207005 0.5 12.7
9:31 pm 21:31 Cloudy with Nearby Thunderstorms 70 21.1 66 18.9 87 87 SE 17 28 30.01 1016 0.75 1.207005 0.58 14.732
9:35 pm 21:35 Cloudy with Nearby Thunderstorms 69 20.6 66 18.9 90 90 SSE 15 24 30.01 1016 1 1.60934 0.63 16.002
9:40 pm 21:40 Cloudy with Nearby Thunderstorms 69 20.6 67 19.4 93 93 SSE 12 19 30.01 1016 2 3.21868 0.66 16.764
9:48 pm 21:48 Cloudy with Nearby Thunderstorms 70 21 64 18 83 83 SE 7 11 30 1016 6 9.65604 0.67 17.018
9:53 pm 21:53 Cloudy with Light Rain 68 20 65 18.3 90 90 E 8 13 29.99 1016 8 12.87472 0.67 17.018
10:53 pm 22:53 Mostly Cloudy with Light Rain 69 20.6 67 19.4 93 93 SSW 8 13 29.97 1015 10 16.0934 0.02 0.508
11:53 pm 23:53 Mostly Cloudy 68 20 67 19.4 96 96 WSW 7 11 29.99 1016 10 16.0934 0.001 0.001

Powered by AerisWeather